1509386400.75,61115,8.0,72450.5,-14.55,-15.11,-15.15,0,*63
1509386401.99,61116,8.0,72448.0,-14.53,-15.11,-15.21,0,*61
1509386403.22,61117,8.0,72446.8,-14.53,-15.11,-15.11,0,*63
1509386404.44,61118,8.0,72448.0,-14.53,-15.07,-15.07,0,*6C
1509386405.66,61119,8.0,72446.0,-14.53,-15.07,-15.11,0,*6A
1509386406.88,61120,8.0,72446.5,-14.53,-15.11,-15.11,0,*67
1509386408.11,61121,8.0,72444.8,-14.53,-15.07,-15.07,0,*66
1509386409.35,61122,8.0,72448.3,-14.53,-15.07,-15.21,0,*61
1509386410.58,61123,8.0,72446.0,-14.53,-15.11,-15.07,0,*63
1509386411.8,61124,8.0,72440.0,-14.53,-15.07,-15.11,0,*64
1509386413.02,61125,8.0,72450.5,-14.53,-15.11,-15.07,0,*65
1509386414.24,61126,8.0,72448.0,-14.53,-15.11,-15.11,0,*61
1509386415.46,61127,8.0,72440.8,-14.53,-15.11,-15.11,0,*60
1509386416.71,61128,8.0,72430.8,-14.49,-15.11,-15.21,0,*67
1509386417.98,61129,8.0,72438.0,-14.53,-15.21,-15.21,0,*6E
1509386419.23,61130,8.0,72426.5,-14.49,-15.21,-15.25,0,*69
1509386420.48,61131,8.0,72426.8,-14.53,-15.25,-15.21,0,*63
1509386421.72,61132,8.0,72436.5,-14.53,-15.21,-15.11,0,*67
1509386422.97,61133,8.0,72426.3,-14.53,-15.25,-15.21,0,*61
1509386424.23,61134,8.0,72426.0,-14.53,-15.21,-15.25,0,*66
1509386425.45,61135,8.0,72430.0,-14.53,-15.11,-15.25,0,*64
1509386426.69,61136,8.0,72426.8,-14.53,-15.25,-15.25,0,*60
1509386427.96,61137,8.0,72420.3,-14.53,-15.21,-15.21,0,*61
1509386429.18,61138,8.0,72420.0,-14.53,-15.11,-15.11,0,*6E
1509386430.45,61139,8.0,72422.3,-14.53,-15.21,-15.21,0,*6F
1509386431.68,61140,8.0,72420.3,-14.53,-15.25,-15.11,0,*66
1509386432.94,61141,8.0,72416.0,-14.53,-15.21,-15.21,0,*60
1509386434.2,61142,8.0,72418.5,-14.53,-15.25,-15.21,0,*67
1509386435.42,61143,8.0,72414.3,-14.49,-15.25,-15.11,0,*6E
1509386436.67,61144,8.0,72410.5,-14.53,-15.21,-15.07,0,*61
1509386437.89,61145,8.0,72404.5,-14.53,-15.11,-15.11,0,*64
1509386439.14,61146,8.0,72406.8,-14.53,-15.07,-15.21,0,*63
1509386440.38,61147,8.0,72402.8,-14.53,-15.11,-15.21,0,*65
1509386441.61,61148,8.0,72408.8,-14.53,-15.11,-15.25,0,*6E
1509386442.84,61149,8.0,72408.5,-14.53,-15.25,-15.11,0,*6F
1509386444.06,61150,8.0,72404.0,-14.53,-15.07,-15.11,0,*67
1509386445.28,61151,8.0,72408.5,-14.49,-15.11,-15.11,0,*6A
1509386446.5,61152,8.0,72406.5,-14.53,-15.11,-15.11,0,*62
1509386447.75,61153,8.0,72404.0,-14.49,-15.11,-15.21,0,*6B
1509386449.01,61154,8.0,72402.0,-14.53,-15.21,-15.21,0,*64
1509386450.25,61155,8.0,72400.8,-14.53,-15.25,-15.25,0,*65
1509386451.48,61156,8.0,72404.8,-14.53,-15.25,-15.11,0,*61
1509386452.75,61157,8.0,72400.0,-14.53,-15.35,-15.21,0,*62
1509386454.0,61158,8.0,72410.5,-14.53,-15.11,-15.21,0,*6B
1509386455.25,61159,8.0,72418.8,-14.53,-15.25,-15.21,0,*6D
1509386456.47,61160,8.0,72422.3,-14.53,-15.11,-15.11,0,*63
1509386457.72,61161,8.0,72420.8,-14.53,-15.21,-15.11,0,*61
1509386458.96,61162,8.0,72422.3,-14.49,-15.21,-15.11,0,*69
1509386460.2,61163,8.0,72416.8,-14.53,-15.21,-15.11,0,*63
1509386461.47,61164,8.0,72416.8,-14.53,-15.21,-15.21,0,*67
1509386462.74,61165,8.0,72422.0,-14.53,-15.21,-15.21,0,*66
1509386463.97,61166,8.0,72424.0,-14.53,-15.11,-15.25,0,*62
1509386465.23,61167,8.0,72422.0,-14.55,-15.25,-15.29,0,*6E
1509386466.5,61168,8.0,72424.5,-14.53,-15.21,-15.21,0,*6B
1509386467.73,61169,8.0,72420.8,-14.53,-15.11,-15.25,0,*6D
1509386468.97,61170,8.0,72418.0,-14.53,-15.11,-15.21,0,*61
1509386470.19,61171,8.0,72422.3,-14.53,-15.11,-15.07,0,*64
1509386471.44,61172,8.0,72432.3,-14.53,-15.11,-15.21,0,*63
1509386472.68,61173,8.0,72434.8,-14.53,-15.21,-15.07,0,*65
1509386473.96,61174,8.0,72438.0,-14.53,-15.35,-15.21,0,*63
1509386475.21,61175,8.0,72436.5,-14.53,-15.21,-15.25,0,*63
1509386476.48,61176,8.0,72436.8,-14.53,-15.21,-15.21,0,*64
1509386477.7,61177,8.0,72438.3,-14.53,-15.11,-15.07,0,*62
1509386478.92,61178,8.0,72434.5,-14.53,-15.11,-15.11,0,*6A
1509386480.16,61179,8.0,72434.3,-14.53,-15.21,-15.11,0,*68
1509386481.41,61180,8.0,72432.3,-14.53,-15.21,-15.25,0,*69
1509386482.66,61181,8.0,72430.0,-14.53,-15.21,-15.11,0,*6F
1509386483.89,61182,8.0,72426.5,-14.53,-15.25,-15.07,0,*6F
1509386485.11,61183,8.0,72426.0,-14.53,-15.11,-15.11,0,*6E
1509386486.34,61184,8.0,72426.3,-14.53,-15.25,-15.11,0,*6E
1509386487.58,61185,8.0,72422.5,-14.49,-15.11,-15.21,0,*60
1509386488.85,61186,8.0,72422.5,-14.53,-15.21,-15.21,0,*6B
1509386490.09,61187,8.0,72420.8,-14.53,-15.21,-15.11,0,*69
1509386491.36,61188,8.0,72424.5,-14.53,-15.21,-15.21,0,*65
1509386492.59,61189,8.0,72424.3,-14.49,-15.07,-15.25,0,*6F
1509386493.85,61190,8.0,72422.3,-14.55,-15.25,-15.25,0,*6A
1509386495.1,61191,8.0,72420.8,-14.55,-15.25,-15.11,0,*6C
1509386496.35,61192,8.0,72416.5,-14.53,-15.11,-15.21,0,*6D
1509386497.57,61193,8.0,72416.0,-14.53,-15.11,-15.25,0,*68
1509386498.82,61194,8.06,72416.8,-14.53,-15.21,-15.07,0,*6C
1509386500.04,61195,8.0,72414.5,-14.53,-15.11,-15.11,0,*69
1509386501.27,61196,8.0,72414.8,-14.53,-15.25,-15.25,0,*6A
1509386502.49,61197,8.0,72412.5,-14.49,-15.11,-15.11,0,*60
1509386503.75,61198,8.0,72406.8,-14.55,-15.29,-15.15,0,*6D
1509386505.0,61199,8.0,72404.8,-14.55,-15.15,-15.15,0,*63
1509386506.23,61200,8.0,72398.0,-14.53,-15.25,-15.11,0,*61
1509386507.45,61201,8.0,72396.3,-14.53,-15.25,-15.11,0,*60
1509386508.7,61202,8.0,72394.5,-14.53,-15.21,-15.11,0,*67
1509386509.96,61203,8.0,72388.5,-14.55,-15.15,-15.29,0,*6C
1509386511.21,61204,8.0,72388.0,-14.55,-15.15,-15.15,0,*64
1509386512.46,61205,8.0,72388.0,-14.55,-15.25,-15.15,0,*66
1509386513.71,61206,8.0,72386.8,-14.55,-15.15,-15.15,0,*66
1509386514.97,61207,8.0,72390.8,-14.55,-15.15,-15.25,0,*64
1509386516.23,61208,8.0,72390.3,-14.55,-15.25,-15.25,0,*68
1509386517.48,61209,8.0,72390.3,-14.55,-15.25,-15.25,0,*69
1509386518.75,61210,8.06,72390.0,-14.53,-15.21,-15.21,0,*67
1509386520.02,61211,8.0,72390.3,-14.53,-15.21,-15.21,0,*66
1509386521.28,61212,8.0,72394.0,-14.55,-15.29,-15.25,0,*6F
1509386522.55,61213,8.0,72398.8,-14.53,-15.21,-15.21,0,*64
1509386523.82,61214,8.0,72394.0,-14.53,-15.21,-15.21,0,*63
1509386525.07,61215,8.0,72400.3,-14.53,-15.25,-15.21,0,*66
1509386526.32,61216,8.0,72400.0,-14.49,-15.25,-15.21,0,*6E
1509386527.58,61217,8.0,72408.0,-14.55,-15.25,-15.29,0,*6A
1509386528.83,61218,8.0,72426.0,-14.55,-15.25,-15.15,0,*6A
1509386530.09,61219,8.0,72424.3,-14.55,-15.25,-15.25,0,*68
1509386531.35,61220,8.0,72424.0,-14.55,-15.15,-15.25,0,*61
1509386532.6,61221,8.0,72422.0,-14.55,-15.15,-15.15,0,*63
1509386533.86,61222,8.0,72422.3,-14.55,-15.15,-15.25,0,*63
1509386535.11,61223,8.0,72430.0,-14.55,-15.15,-15.25,0,*62
1509386536.37,61224,8.0,72440.8,-14.55,-15.15,-15.25,0,*65
1509386537.6,61225,8.0,72442.5,-14.53,-15.11,-15.25,0,*66
1509386538.87,61226,8.0,72436.0,-14.53,-15.21,-15.21,0,*62
1509386540.11,61227,8.0,72442.8,-14.53,-15.11,-15.21,0,*60
1509386541.38,61228,8.0,72444.0,-14.53,-15.21,-15.21,0,*6C
1509386542.6,61229,8.0,72442.8,-14.53,-15.11,-15.07,0,*6A
1509386543.83,61230,8.0,72436.3,-14.53,-15.11,-15.11,0,*65
1509386545.05,61231,8.0,72444.0,-14.53,-15.11,-15.11,0,*64
1509386546.29,61232,8.0,72436.3,-14.53,-15.21,-15.11,0,*64
1509386547.54,61233,8.0,72432.8,-14.53,-15.21,-15.25,0,*62
1509386548.78,61234,8.0,72432.8,-14.53,-15.25,-15.25,0,*61
1509386550.03,61235,8.06,72438.0,-14.53,-15.25,-15.21,0,*64
1509386551.3,61236,8.0,72432.3,-14.53,-15.21,-15.21,0,*63
1509386552.57,61237,8.0,72424.3,-14.53,-15.21,-15.21,0,*62
1509386553.83,61238,8.0,72432.3,-14.55,-15.25,-15.25,0,*6B
1509386555.09,61239,8.0,72444.3,-14.55,-15.25,-15.29,0,*66
1509386556.33,61240,8.0,72448.5,-14.57,-15.29,-15.21,0,*6E
1509386557.59,61241,8.0,72426.3,-14.55,-15.25,-15.25,0,*65
1509386558.85,61242,8.0,72418.5,-14.55,-15.29,-15.25,0,*6A
1509386560.11,61243,8.0,72410.0,-14.55,-15.29,-15.25,0,*6B
1509386561.36,61244,8.0,72412.8,-14.55,-15.25,-15.15,0,*63
1509386562.61,61245,8.0,72432.0,-14.55,-15.25,-15.15,0,*62
1509386563.87,61246,8.0,72434.5,-14.55,-15.29,-15.29,0,*62
1509386565.13,61247,8.0,72434.8,-14.55,-15.29,-15.29,0,*63
1509386566.38,61248,8.0,72418.5,-14.53,-15.21,-15.25,0,*6E
1509386567.64,61249,8.0,72390.5,-14.55,-15.29,-15.25,0,*61
1509386568.89,61250,8.0,72378.8,-14.55,-15.29,-15.15,0,*6A
1509386570.15,61251,8.0,72374.5,-14.55,-15.25,-15.29,0,*68
1509386571.41,61252,8.06,72346.5,-14.55,-15.29,-15.29,0,*67
1509386572.67,61253,8.0,72352.3,-14.55,-15.29,-15.25,0,*6A
1509386573.93,61254,8.0,72322.5,-14.55,-15.29,-15.29,0,*61
1509386575.19,61255,8.0,72310.3,-14.55,-15.25,-15.25,0,*60
1509386576.45,61256,8.0,72332.0,-14.55,-15.29,-15.25,0,*6F
1509386577.71,61257,8.0,72316.3,-14.55,-15.29,-15.25,0,*6E
1509386578.94,61258,8.0,72356.5,-14.57,-15.29,-15.29,0,*6F
1509386580.19,61259,8.0,72404.8,-14.55,-15.29,-15.15,0,*63
1509386581.42,61260,8.0,72376.3,-14.57,-15.29,-15.29,0,*64
1509386582.67,61261,8.06,72382.5,-14.57,-15.29,-15.35,0,*68
1509386583.93,61262,8.0,72392.3,-14.55,-15.29,-15.25,0,*68
1509386585.18,61263,8.0,72370.0,-14.55,-15.25,-15.15,0,*66
1509386586.44,61264,8.0,72380.0,-14.55,-15.25,-15.15,0,*61
1509386587.7,61265,8.0,72370.8,-14.55,-15.29,-15.25,0,*6F
1509386588.97,61266,8.0,72370.8,-14.57,-15.35,-15.21,0,*67
1509386590.23,61267,8.0,72374.8,-14.55,-15.25,-15.25,0,*61
1509386591.49,61268,8.0,72400.5,-14.55,-15.29,-15.25,0,*62
1509386592.74,61269,8.0,72394.5,-14.55,-15.25,-15.29,0,*63
1509386594.02,61270,8.0,72358.3,-14.57,-15.35,-15.35,0,*65
1509386595.28,61271,8.0,72368.8,-14.55,-15.29,-15.29,0,*66
1509386596.51,61272,8.0,72342.0,-14.53,-15.25,-15.25,0,*63
1509386597.77,61273,8.0,72314.5,-14.57,-15.43,-15.29,0,*6A
1509386599.05,61274,8.0,72316.3,-14.55,-15.29,-15.39,0,*62
1509386600.31,61275,8.0,72336.0,-14.55,-15.29,-15.29,0,*62
1509386601.57,61276,8.0,72348.3,-14.55,-15.29,-15.29,0,*61
1509386602.83,61277,8.0,72356.0,-14.55,-15.25,-15.25,0,*60
1509386604.08,61278,8.0,72358.3,-14.55,-15.29,-15.25,0,*63
1509386605.35,61279,8.0,72366.0,-14.55,-15.29,-15.29,0,*6E
1509386606.6,61280,8.0,72370.0,-14.55,-15.29,-15.25,0,*64
1509386607.86,61281,8.0,72372.8,-14.55,-15.29,-15.29,0,*69
1509386609.12,61282,8.0,72374.8,-14.55,-15.29,-15.25,0,*66
1509386610.42,61283,8.0,72372.0,-14.55,-15.35,-15.35,0,*6B
1509386611.68,61284,8.0,72384.5,-14.55,-15.29,-15.29,0,*6C
1509386612.94,61285,8.0,72392.8,-14.55,-15.29,-15.29,0,*6D
1509386614.2,61286,8.0,72394.5,-14.55,-15.25,-15.29,0,*62
1509386615.47,61287,8.0,72398.3,-14.57,-15.35,-15.35,0,*6D
1509386616.73,61288,8.0,72402.8,-14.55,-15.29,-15.29,0,*60
1509386618.0,61289,8.0,72414.8,-14.57,-15.35,-15.35,0,*63
1509386619.26,61290,8.0,72424.3,-14.55,-15.25,-15.25,0,*69
1509386620.52,61291,8.0,72430.0,-14.57,-15.35,-15.29,0,*67
1509386621.75,61292,8.0,72436.0,-14.57,-15.29,-15.29,0,*69
1509386623.01,61293,8.0,72436.3,-14.57,-15.35,-15.29,0,*65
1509386624.28,61294,8.0,72438.3,-14.57,-15.35,-15.21,0,*6A
1509386625.51,61295,8.0,72444.3,-14.57,-15.25,-15.29,0,*62
1509386626.74,61296,8.0,72440.5,-14.57,-15.29,-15.29,0,*6D
1509386627.99,61297,8.0,72438.8,-14.55,-15.11,-15.15,0,*6A
1509386629.26,61298,8.0,72440.5,-14.57,-15.35,-15.21,0,*66
1509386630.52,61299,8.0,72440.8,-14.55,-15.25,-15.25,0,*60
1509386631.78,61300,8.0,72444.3,-14.55,-15.25,-15.29,0,*6D
1509386633.01,61301,8.0,72446.8,-14.57,-15.29,-15.29,0,*62
1509386634.27,61302,8.0,72450.0,-14.57,-15.35,-15.29,0,*6C
1509386635.52,61303,8.0,72438.8,-14.57,-15.35,-15.29,0,*6D
1509386636.78,61304,8.0,72436.3,-14.55,-15.29,-15.25,0,*69
1509386638.03,61305,8.0,72438.5,-14.57,-15.29,-15.35,0,*6B
1509386639.26,61306,8.0,72432.5,-14.57,-15.25,-15.29,0,*69
1509386640.49,61307,8.0,72430.0,-14.57,-15.29,-15.25,0,*68
1509386641.72,61308,8.0,72428.5,-14.57,-15.29,-15.15,0,*64
1509386642.95,61309,8.0,72430.3,-14.57,-15.29,-15.29,0,*6A
1509386644.2,61310,8.0,72426.8,-14.57,-15.29,-15.21,0,*6A
1509386645.46,61311,8.0,72420.0,-14.57,-15.35,-15.29,0,*6E
1509386646.71,61312,8.0,72410.0,-14.55,-15.25,-15.15,0,*61
1509386647.94,61313,8.0,72412.0,-14.57,-15.29,-15.29,0,*61
1509386649.17,61314,8.0,72410.5,-14.57,-15.29,-15.29,0,*66
1509386650.42,61315,8.0,72410.5,-14.57,-15.21,-15.29,0,*6F
1509386651.66,61316,8.0,72406.0,-14.57,-15.29,-15.29,0,*64
1509386652.9,61317,8.0,72404.5,-14.57,-15.29,-15.21,0,*6D
1509386654.18,61318,8.0,72404.3,-14.57,-15.35,-15.35,0,*6A
1509386655.44,61319,8.0,72406.5,-14.55,-15.25,-15.25,0,*69
1509386656.69,61320,8.0,72412.3,-14.57,-15.35,-15.29,0,*6C
1509386657.92,61321,8.0,72414.8,-14.57,-15.29,-15.29,0,*60
1509386659.18,61322,8.0,72424.5,-14.55,-15.25,-15.15,0,*62
1509386660.42,61323,8.0,72426.3,-14.57,-15.29,-15.21,0,*6A
1509386661.67,61324,8.0,72428.5,-14.57,-15.21,-15.29,0,*6D
1509386662.92,61325,8.0,72436.3,-14.55,-15.15,-15.15,0,*66
1509386664.18,61326,8.0,72436.3,-14.55,-15.25,-15.15,0,*66
1509386665.41,61327,8.0,72438.3,-14.57,-15.25,-15.25,0,*66
1509386666.67,61328,8.0,72420.8,-14.55,-15.15,-15.25,0,*68
1509386667.93,61329,8.0,72428.8,-14.57,-15.21,-15.21,0,*68
1509386669.18,61330,8.0,72434.0,-14.57,-15.29,-15.21,0,*68
1509386670.44,61331,8.0,72472.0,-14.57,-15.21,-15.21,0,*61
1509386671.7,61332,8.0,72470.3,-14.55,-15.11,-15.25,0,*67
1509386672.95,61333,8.0,72470.3,-14.55,-15.15,-15.25,0,*62
1509386674.21,61334,8.0,72470.5,-14.55,-15.25,-15.25,0,*66
1509386675.46,61335,8.0,72444.0,-14.55,-15.15,-15.15,0,*67
1509386676.7,61336,8.0,72444.5,-14.57,-15.29,-15.29,0,*66
1509386677.95,61337,8.0,72440.5,-14.55,-15.29,-15.15,0,*6A
1509386679.23,61338,8.0,72458.5,-14.55,-15.39,-15.29,0,*6B
1509386680.5,61339,8.0,72448.0,-14.57,-15.35,-15.35,0,*69
1509386681.76,61340,8.0,72442.8,-14.55,-15.25,-15.29,0,*69
1509386683.02,61341,8.0,72442.5,-14.57,-15.35,-15.29,0,*6B
1509386684.3,61342,8.0,72440.8,-14.55,-15.39,-15.29,0,*66
1509386685.61,61343,8.0,72440.8,-14.55,-15.39,-15.39,0,*66
1509386686.88,61344,8.0,72450.0,-14.57,-15.43,-15.35,0,*62
1509386688.16,61345,8.0,72410.8,-14.55,-15.43,-15.29,0,*6C
1509386689.42,61346,8.0,72416.8,-14.57,-15.39,-15.49,0,*66
1509386690.69,61347,8.0,72414.8,-14.57,-15.35,-15.43,0,*61
1509386691.97,61348,8.0,72426.3,-14.57,-15.43,-15.43,0,*6F
1509386693.24,61349,8.0,72420.8,-14.57,-15.35,-15.35,0,*6E
1509386694.52,61350,8.0,72420.3,-14.57,-15.35,-15.43,0,*67
1509386695.78,61351,8.0,72416.8,-14.57,-15.35,-15.29,0,*6A
1509386697.03,61352,8.0,72394.8,-14.57,-15.43,-15.29,0,*68
1509386698.28,61353,8.0,72378.5,-14.57,-15.49,-15.35,0,*6E
1509386699.58,61354,8.0,72374.8,-14.55,-15.39,-15.39,0,*60
1509386700.89,61355,8.0,72394.3,-14.55,-15.43,-15.43,0,*61
1509386702.17,61356,8.0,72410.0,-14.57,-15.43,-15.43,0,*60
1509386703.39,61357,8.0,72412.3,-14.57,-15.49,-15.49,0,*61
1509386704.67,61358,8.0,72414.3,-14.57,-15.43,-15.43,0,*6E
1509386705.94,61359,8.0,72400.5,-14.57,-15.35,-15.35,0,*6F
1509386707.22,61360,8.0,72378.8,-14.57,-15.43,-15.43,0,*65
1509386708.49,61361,8.0,72372.0,-14.57,-15.43,-15.35,0,*65
1509386709.77,61362,8.0,72372.0,-14.57,-15.35,-15.43,0,*66
1509386711.04,61363,8.0,72374.0,-14.57,-15.35,-15.35,0,*66
1509386712.32,61364,8.0,72368.5,-14.57,-15.43,-15.43,0,*61
1509386713.6,61365,8.0,72354.8,-14.59,-15.43,-15.29,0,*62
1509386714.9,61366,8.0,72352.0,-14.59,-15.43,-15.35,0,*6C
1509386716.2,61367,8.0,72362.8,-14.59,-15.43,-15.43,0,*6C
1509386717.49,61368,8.0,72376.0,-14.59,-15.43,-15.35,0,*62
1509386718.79,61369,8.0,72380.5,-14.59,-15.43,-15.43,0,*62
1509386720.07,61370,8.0,72376.5,-14.59,-15.29,-15.43,0,*66
1509386721.37,61371,8.0,72366.3,-14.59,-15.35,-15.35,0,*6B
1509386722.66,61372,8.06,72362.5,-14.59,-15.43,-15.35,0,*69
1509386723.96,61373,8.0,72358.0,-14.59,-15.43,-15.35,0,*68
1509386725.24,61374,8.0,72350.3,-14.59,-15.35,-15.29,0,*63
1509386726.53,61375,8.0,72336.0,-14.59,-15.35,-15.35,0,*6F
1509386727.81,61376,8.0,72314.5,-14.59,-15.35,-15.29,0,*61
1509386729.05,61377,8.0,72346.0,-14.61,-15.29,-15.21,0,*6E
1509386730.31,61378,8.0,72330.0,-14.61,-15.35,-15.35,0,*69
1509386731.61,61379,8.0,72324.8,-14.59,-15.35,-15.43,0,*62
1509386732.9,61380,8.0,72356.3,-14.59,-15.43,-15.35,0,*64
1509386734.12,61381,8.0,72362.3,-14.61,-15.29,-15.49,0,*69
1509386735.36,61382,8.0,72368.3,-14.61,-15.29,-15.35,0,*61
1509386736.63,61383,8.0,72376.5,-14.59,-15.29,-15.35,0,*6B
1509386737.93,61384,8.0,72382.0,-14.59,-15.35,-15.35,0,*61
1509386739.21,61385,8.0,72378.5,-14.59,-15.35,-15.29,0,*6D
1509386740.48,61386,8.0,72364.8,-14.59,-15.29,-15.43,0,*6F
1509386741.78,61387,8.0,72368.8,-14.59,-15.35,-15.35,0,*62
1509386743.05,61388,8.0,72366.5,-14.59,-15.29,-15.35,0,*60
1509386744.35,61389,8.0,72378.5,-14.59,-15.35,-15.35,0,*6C
1509386745.64,61390,8.0,72390.8,-14.59,-15.35,-15.35,0,*64
1509386746.94,61391,8.06,72398.3,-14.59,-15.35,-15.35,0,*65
1509386748.18,61392,8.0,72404.0,-14.61,-15.29,-15.35,0,*60
1509386749.45,61393,8.0,72422.8,-14.59,-15.21,-15.29,0,*6F
1509386750.69,61394,8.0,72422.3,-14.61,-15.29,-15.21,0,*63
1509386751.96,61395,8.0,72424.3,-14.59,-15.21,-15.29,0,*69
1509386753.25,61396,8.0,72430.8,-14.59,-15.21,-15.21,0,*62
1509386754.5,61397,8.0,72442.0,-14.61,-15.35,-15.21,0,*6D
1509386755.8,61398,8.0,72446.0,-14.59,-15.35,-15.21,0,*69
1509386757.07,61399,8.0,72450.3,-14.59,-15.29,-15.21,0,*65
1509386758.31,61400,8.0,72448.5,-14.61,-15.21,-15.29,0,*69
1509386759.58,61401,8.0,72442.3,-14.59,-15.29,-15.21,0,*63
1509386760.82,61402,8.0,72448.8,-14.61,-15.29,-15.21,0,*6B
1509386762.07,61403,8.0,72448.0,-14.59,-15.29,-15.29,0,*69
1509386763.32,61404,8.0,72454.5,-14.61,-15.21,-15.35,0,*60
1509386764.6,61405,8.0,72460.3,-14.59,-15.29,-15.21,0,*67
1509386765.85,61406,8.0,72464.3,-14.61,-15.21,-15.21,0,*67
1509386767.12,61407,8.0,72470.3,-14.59,-15.29,-15.21,0,*65
1509386768.39,61408,8.0,72462.8,-14.59,-15.29,-15.21,0,*6A
1509386769.63,61409,8.06,72470.8,-14.61,-15.29,-15.21,0,*60
1509386770.92,61410,8.0,72472.3,-14.59,-15.21,-15.21,0,*6B
1509386772.21,61411,8.0,72476.5,-14.59,-15.21,-15.21,0,*6A
1509386773.44,61412,8.0,72478.0,-14.61,-15.29,-15.21,0,*6A
1509386774.73,61413,8.0,72478.8,-14.59,-15.21,-15.21,0,*68
1509386775.98,61414,8.0,72478.3,-14.61,-15.21,-15.21,0,*64
1509386777.25,61415,8.0,72472.5,-14.59,-15.29,-15.21,0,*66
1509386778.54,61416,8.0,72474.8,-14.59,-15.21,-15.35,0,*68
1509386779.83,61417,8.0,72470.5,-14.59,-15.21,-15.21,0,*6C
1509386781.12,61418,8.0,72434.3,-14.59,-15.21,-15.21,0,*63
1509386782.39,61419,8.0,72390.0,-14.59,-15.21,-15.29,0,*6A
1509386783.67,61420,8.0,72362.3,-14.59,-15.15,-15.21,0,*6F
1509386784.92,61421,8.0,72318.8,-14.59,-15.29,-15.29,0,*69
1509386786.18,61422,8.0,72296.0,-14.59,-15.29,-15.29,0,*6A
1509386787.45,61423,8.0,72270.3,-14.59,-15.29,-15.35,0,*66
1509386788.75,61424,8.0,72276.3,-14.59,-15.35,-15.35,0,*6C
1509386790.02,61425,8.0,72280.8,-14.59,-15.29,-15.21,0,*65
1509386791.31,61426,8.0,72286.8,-14.59,-15.35,-15.21,0,*6B
1509386792.61,61427,8.0,72306.8,-14.59,-15.35,-15.21,0,*6A
1509386793.86,61428,8.0,72318.5,-14.59,-15.29,-15.29,0,*60
1509386795.14,61429,8.0,72324.8,-14.59,-15.35,-15.29,0,*6C
1509386796.43,61430,8.06,72328.3,-14.59,-15.21,-15.21,0,*69
1509386797.7,61431,8.0,72360.3,-14.59,-15.29,-15.35,0,*65
1509386798.98,61432,8.0,72374.3,-14.59,-15.29,-15.21,0,*63
1509386800.25,61433,8.0,72384.5,-14.59,-15.29,-15.35,0,*67
1509386801.53,61434,8.0,72390.8,-14.59,-15.35,-15.29,0,*60
1509386802.8,61435,8.0,72398.0,-14.59,-15.29,-15.21,0,*64
1509386804.08,61436,8.0,72408.5,-14.59,-15.35,-15.29,0,*62
1509386805.33,61437,8.0,72410.5,-14.59,-15.29,-15.07,0,*62
1509386806.61,61438,8.0,72418.0,-14.59,-15.35,-15.29,0,*6C
1509386807.88,61439,8.0,72432.0,-14.59,-15.21,-15.29,0,*68
1509386809.17,61440,8.0,72434.0,-14.59,-15.35,-15.21,0,*6B
1509386810.42,61441,8.0,72440.3,-14.59,-15.29,-15.15,0,*60
1509386811.7,61442,8.0,72444.3,-14.59,-15.29,-15.35,0,*61
1509386812.97,61443,8.0,72450.0,-14.59,-15.29,-15.21,0,*65
1509386814.26,61444,8.0,72446.8,-14.59,-15.21,-15.21,0,*6A
1509386815.52,61445,8.06,72452.3,-14.59,-15.21,-15.15,0,*6C
1509386816.81,61446,8.0,72452.0,-14.59,-15.21,-15.21,0,*68
1509386818.08,61447,8.0,72456.3,-14.59,-15.15,-15.21,0,*6E
1509386819.35,61448,8.0,72456.3,-14.59,-15.21,-15.29,0,*6E
1509386820.61,61449,8.0,72452.0,-14.59,-15.29,-15.29,0,*67
1509386821.9,61450,8.06,72452.5,-14.59,-15.21,-15.21,0,*6F
1509386823.17,61451,8.0,72448.3,-14.59,-15.29,-15.21,0,*66
1509386824.44,61452,8.0,72444.5,-14.59,-15.29,-15.21,0,*65
1509386825.69,61453,8.0,72436.3,-14.61,-15.21,-15.21,0,*67
1509386826.97,61454,8.0,72434.0,-14.59,-15.29,-15.21,0,*63
1509386828.26,61455,8.0,72422.5,-14.59,-15.21,-15.21,0,*6A
1509386829.51,61456,8.0,72412.0,-14.59,-15.29,-15.29,0,*69
1509386830.8,61457,8.0,72416.3,-14.59,-15.21,-15.21,0,*68
1509386832.09,61458,8.0,72414.8,-14.59,-15.21,-15.21,0,*67
1509386833.38,61459,8.0,72410.3,-14.59,-15.21,-15.21,0,*66
1509386834.64,61460,8.0,72428.0,-14.59,-15.21,-15.15,0,*6B
1509386835.93,61461,8.0,72434.3,-14.59,-15.21,-15.21,0,*6D
1509386837.2,61462,8.0,72436.5,-14.59,-15.15,-15.21,0,*69
1509386838.45,61463,8.0,72440.8,-14.59,-15.29,-15.15,0,*60
1509386839.7,61464,8.0,72454.0,-14.59,-15.29,-15.15,0,*67
1509386840.99,61465,8.0,72458.5,-14.59,-15.21,-15.21,0,*69
1509386842.28,61466,8.06,72468.5,-14.59,-15.21,-15.21,0,*6A
1509386843.53,61467,8.0,72470.0,-14.57,-15.29,-15.21,0,*6D
1509386844.79,61468,8.0,72460.5,-14.57,-15.21,-15.21,0,*6A
1509386846.04,61469,8.0,72462.5,-14.59,-15.15,-15.15,0,*65
1509386847.3,61470,8.0,72454.5,-14.59,-15.21,-15.15,0,*6A
1509386848.57,61471,8.0,72450.5,-14.59,-15.21,-15.15,0,*6B
1509386849.83,61472,8.0,72440.0,-14.59,-15.21,-15.15,0,*68
1509386851.09,61473,8.0,72446.5,-14.59,-15.15,-15.29,0,*61
1509386852.34,61474,8.0,72446.5,-14.59,-15.15,-15.15,0,*69
1509386853.62,61475,8.0,72442.5,-14.59,-15.21,-15.21,0,*68
1509386854.91,61476,8.0,72446.5,-14.59,-15.21,-15.21,0,*6B
1509386856.19,61477,8.0,72440.8,-14.59,-15.29,-15.21,0,*62
1509386857.47,61478,8.0,72438.8,-14.59,-15.21,-15.21,0,*65
1509386858.74,61479,8.0,72438.5,-14.57,-15.21,-15.21,0,*6A
1509386859.98,61480,8.0,72436.0,-14.57,-15.21,-15.15,0,*6B
1509386861.25,61481,8.0,72436.0,-14.59,-15.15,-15.21,0,*64
1509386862.52,61482,8.0,72438.8,-14.59,-15.29,-15.21,0,*68
1509386863.77,61483,8.0,72436.5,-14.57,-15.29,-15.21,0,*67
1509386865.02,61484,8.0,72436.0,-14.55,-15.11,-15.15,0,*6E
1509386866.27,61485,8.0,72432.8,-14.57,-15.15,-15.21,0,*6E
1509386867.52,61486,8.0,72430.5,-14.57,-15.29,-15.21,0,*62
1509386868.77,61487,8.0,72430.5,-14.59,-15.29,-15.29,0,*65
1509386870.04,61488,8.0,72428.3,-14.59,-15.29,-15.21,0,*62
1509386871.28,61489,8.0,72428.3,-14.57,-15.29,-15.29,0,*65
1509386872.54,61490,8.0,72420.8,-14.57,-15.21,-15.35,0,*68
1509386873.81,61491,8.0,72422.5,-14.57,-15.35,-15.21,0,*69
1509386875.11,61492,8.0,72416.0,-14.59,-15.35,-15.21,0,*64
1509386876.34,61493,8.0,72412.3,-14.57,-15.29,-15.29,0,*6E
1509386877.59,61494,8.0,72410.0,-14.57,-15.29,-15.21,0,*61
1509386878.84,61495,8.0,72414.8,-14.57,-15.29,-15.21,0,*60
1509386880.07,61496,8.0,72414.0,-14.57,-15.29,-15.29,0,*6B
1509386881.32,61497,8.0,72410.0,-14.57,-15.29,-15.35,0,*67
1509386882.57,61498,8.0,72412.8,-14.57,-15.21,-15.29,0,*6D
1509386883.85,61499,8.0,72412.8,-14.59,-15.35,-15.29,0,*67
1509386885.1,61500,8.0,72410.5,-14.57,-15.29,-15.21,0,*6D
1509386886.35,61501,8.0,72408.8,-14.57,-15.29,-15.21,0,*6C
1509386887.61,61502,8.0,72410.8,-14.57,-15.21,-15.21,0,*67
1509386888.86,61503,8.0,72406.8,-14.57,-15.21,-15.29,0,*6E
1509386890.1,61504,8.0,72408.0,-14.57,-15.21,-15.15,0,*66
1509386891.34,61505,8.0,72408.8,-14.57,-15.21,-15.15,0,*67
1509386892.59,61506,8.0,72414.3,-14.57,-15.21,-15.29,0,*6B
1509386893.84,61507,8.0,72412.8,-14.57,-15.21,-15.29,0,*6A
1509386895.09,61508,8.0,72416.0,-14.57,-15.15,-15.21,0,*6A
1509386896.35,61509,8.0,72418.5,-14.55,-15.25,-15.25,0,*6E
1509386897.65,61510,8.0,72416.0,-14.59,-15.35,-15.21,0,*6F
1509386898.92,61511,8.0,72418.3,-14.59,-15.15,-15.21,0,*6C
1509386900.19,61512,8.0,72418.3,-14.59,-15.21,-15.29,0,*60
1509386901.45,61513,8.0,72420.5,-14.59,-15.29,-15.29,0,*69
1509386902.72,61514,8.0,72420.0,-14.59,-15.35,-15.29,0,*63
1509386903.96,61515,8.0,72424.5,-14.57,-15.29,-15.29,0,*61
1509386905.21,61516,8.0,72430.0,-14.57,-15.29,-15.21,0,*6A
1509386906.45,61517,8.0,72434.0,-14.57,-15.29,-15.21,0,*6B
1509386907.7,61518,8.0,72436.0,-14.57,-15.29,-15.21,0,*64
1509386908.96,61519,8.0,72438.3,-14.55,-15.25,-15.25,0,*6F
1509386910.23,61520,8.0,72444.3,-14.57,-15.21,-15.21,0,*67
1509386911.48,61521,8.0,72446.8,-14.55,-15.25,-15.11,0,*63